Location: Arrien
(43.3167°N, 0.1500°W)
Time: 03:44:52
(UTC+00:00)

Cosmos 1626 Rocket - Pass Details

Date: 15 October 2021
Orbit: 603 x 631 km, 82.5° (Epoch: 02 December)

Event Time Altitude Azimuth Distance (km) Brightness Sun altitude
Rises 19:05:49 0° 357° (N) 2,876 7.1 -20.5°
Reaches altitude 10° 19:08:07 10° 3° (N) 1,964 6.2 -20.9°
Enters shadow 19:11:06 37° 33° (NNE) 954 4.3 -21.4°
